SCP
0 1 3 4 4 3 3 2 3 2 2 1 1 1 1 1 1 0 1 1 1 1 1 1 0 0 0 0 1 1 1 1 1 1 0 0 0 0 0 0 0 0 0
1 1 2 3 3 3 3 2 2 2 1 1 1 1 1 1 1 0 1 1 1 1 0 0 1 1 1 1 1 1 1 1 1 1 0 0 0 0 0 0 0 0 0
1 1 1 2 3 3 3 3 2 2 1 1 1 1 1 1 1 1 1 0 0 0 0 0 0 1 1 1 1 1 1 1 1 1 0 0 0 0 0 0 0 0 0
1 1 1 1 2 3 3 3 2 2 1 1 1 1 1 1 1 1 1 1 1 0 0 0 0 1 1 1 1 1 1 1 1 0 0 0 0 0 0 0 0 0 0
0 0 1 1 2 2 3 3 2 2 1 1 1 1 1 1 1 1 1 1 1 1 0 0 0 0 1 1 1 1 1 1 1 0 0 0 0 0 0 1 1 1 1
1 0 1 1 2 2 2 2 2 2 2 1 1 1 1 1 1 1 1 1 1 1 1 0 0 0 1 1 1 1 0 0 0 0 0 0 0 0 1 1 1 1 1
1 1 1 1 1 2 2 2 2 2 2 2 1 1 1 1 1 1 1 1 1 1 1 1 1 0 1 1 1 1 0 0 0 0 0 0 0 1 1 1 1 1 1
1 1 1 1 1 1 2 2 2 2 2 2 2 1 1 1 1 1 1 1 1 1 1 1 1 0 0 0 0 0 0 0 0 0 0 0 1 1 1 1 1 1 1
1 2 2 1 1 1 1 1 1 1 1 1 1 1 1 1 1 1 1 0 0 1 1 1 1 0 0 0 0 0 0 0 0 0 0 0 0 1 1 1 1 1 1
1 1 2 2 1 1 1 1 1 1 1 1 1 1 1 1 1 1 0 0 0 0 0 1 1 0 0 0 0 0 0 0 0 0 0 0 0 0 1 1 1 1 1
1 1 1 1 1 1 1 1 1 1 1 1 1 1 1 1 1 0 0 0 0 0 0 0 0 0 0 0 0 0 0 0 0 0 0 0 0 0 1 1 1 1 1
1 1 1 1 1 1 1 1 1 0 0 0 1 1 1 1 1 0 0 0 0 0 0 0 0 0 0 0 0 0 0 0 0 0 0 0 0 0 1 1 1 1 1
1 1 1 1 1 1 1 1 1 1 0 0 1 1 1 1 0 0 0 0 0 0 0 0 0 0 0 0 0 0 0 0 0 0 0 0 0 0 1 1 1 1 1
1 1 1 1 1 1 1 1 1 1 0 0 0 0 0 0 0 0 0 0 0 0 0 0 0 0 0 0 0 0 0 0 0 0 0 0 0 0 1 1 1 1 1
1 1 1 1 1 1 1 1 1 1 0 0 0 0 0 0 0 0 0 0 0 0 0 0 0 0 0 0 0 0 0 0 0 0 0 0 0 0 1 1 1 1 1
1 1 1 1 1 1 1 1 1 1 0 0 0 0 0 0 0 0 0 0 0 0 0 0 0 0 0 0 0 0 0 0 0 0 0 0 0 0 0 1 1 1 1
1 1 1 1 1 1 1 1 1 1 0 0 0 0 0 0 0 0 0 0 0 0 0 0 0 0 0 0 0 0 0 0 0 0 0 0 0 0 0 0 1 1 1
1 1 1 1 1 1 1 1 1 1 0 0 0 0 0 1 1 0 0 0 0 0 0 0 0 0 0 0 0 0 0 0 0 0 0 0 0 0 0 0 0 1 1
0 1 1 1 1 1 1 1 1 1 0 0 0 0 1 1 1 0 0 0 0 0 0 0 0 0 0 0 0 0 0 0 0 0 0 0 0 0 0 0 0 0 0
0 1 1 1 1 1 1 1 1 1 1 0 0 1 1 1 1 0 0 0 0 0 0 0 0 0 0 0 0 0 0 0 0 0 0 0 0 0 0 0 0 0 0
0 0 1 1 1 1 1 1 1 1 1 1 1 1 1 1 1 0 0 0 0 0 0 0 0 0 0 0 0 0 0 0 0 0 0 0 0 0 0 0 0 0 0
0 0 1 1 1 1 1 1 1 1 1 1 1 1 1 1 1 0 0 0 0 0 0 0 0 0 0 0 0 0 0 0 0 0 0 0 0 0 0 0 0 0 0
0 0 1 1 1 1 1 1 1 1 1 0 0 1 1 1 1 0 0 0 0 0 0 0 0 0 0 0 0 0 0 0 0 0 0 0 0 0 0 0 0 0 0
0 0 0 1 1 1 1 1 1 1 0 0 0 0 1 1 0 0 0 0 0 0 0 0 0 0 0 0 0 0 0 0 0 0 0 0 0 0 0 0 0 0 0
0 0 0 1 1 1 1 1 1 1 0 0 0 0 0 0 0 0 0 0 0 0 0 0 0 0 0 0 0 0 0 0 0 0 0 0 0 0 0 0 0 0 0
0 0 0 1 1 1 1 1 1 1 0 0 0 0 0 0 0 0 0 0 0 0 0 0 0 0 0 0 0 0 0 0 0 0 0 0 0 0 0 0 0 0 0
Wind_Speed
0 1 2 1 2 3 4 5 6 7 6 6 7 8 8 8 8 8 8 8 8 8 9 9 9 9 9 9 10 10 10 10 10 10 10 10 10 10 10 9 7 8 11
1 1 1 1 2 3 4 6 6 6 6 6 7 7 8 8 8 8 8 8 8 8 9 9 9 9 9 9 9 9 9 9 9 9 8 8 9 9 9 9 8 8 10
2 1 1 0 2 3 5 5 6 6 6 6 6 7 7 8 8 8 8 7 8 8 8 8 8 8 8 8 8 8 9 9 8 7 5 6 7 9 9 9 9 9 9
1 0 1 1 2 4 5 6 5 6 6 6 6 6 6 7 7 8 8 7 7 7 7 7 8 8 8 8 8 8 8 8 7 4 4 5 6 8 9 9 9 9 9
1 1 1 2 3 4 5 6 6 6 6 6 6 6 6 6 7 7 7 7 7 7 7 7 7 7 7 8 8 7 8 7 5 4 5 5 5 8 8 9 9 9 9
2 1 3 4 4 4 5 6 6 6 5 5 5 5 6 5 6 7 7 7 7 7 7 8 7 7 7 7 7 7 7 6 3 4 5 5 5 7 8 8 8 8 8
2 2 3 5 4 5 5 6 6 6 6 6 6 5 5 6 6 6 6 6 6 7 7 7 7 7 7 7 7 7 6 5 3 4 4 4 5 7 7 7 8 8 7
2 2 3 5 4 4 5 6 6 6 6 7 7 6 6 6 6 6 6 6 6 6 6 7 7 7 6 6 6 7 6 4 3 4 4 4 6 6 6 6 7 7 7
3 3 3 2 3 4 5 5 6 6 7 7 7 7 7 7 7 6 6 6 6 6 6 7 6 6 6 6 6 6 6 4 2 3 3 3 5 5 5 6 6 6 6
3 3 3 3 2 1 3 5 6 7 7 7 7 7 6 6 6 7 6 6 6 6 6 6 6 6 6 6 6 6 5 2 3 3 2 3 5 4 4 5 5 5 5
3 3 2 2 2 1 2 4 4 5 6 5 5 6 4 3 4 4 6 6 6 6 6 6 6 6 6 6 6 5 2 2 2 2 2 4 4 3 3 4 4 4 4
2 2 2 1 1 1 2 2 2 2 3 2 2 3 2 2 3 3 5 6 6 6 5 6 6 5 3 3 4 3 1 2 1 2 2 4 3 3 3 3 3 4 4
1 1 2 1 1 1 1 1 1 1 1 2 2 2 2 2 2 2 2 3 3 3 3 3 3 2 2 2 2 2 2 1 1 1 3 4 3 3 3 3 3 3 3
1 1 1 1 1 1 1 1 1 1 1 1 1 2 2 2 2 2 1 2 1 1 1 1 1 2 2 2 2 2 2 1 1 1 3 5 4 3 2 2 3 3 3
2 2 1 0 0 1 1 1 1 1 1 1 1 1 2 2 2 2 2 2 1 1 1 1 1 2 2 2 2 1 1 1 1 1 1 4 4 4 3 2 2 2 2
3 3 2 1 1 1 1 1 0 1 1 1 1 2 2 1 2 2 2 2 1 1 1 1 1 1 1 1 1 1 1 0 1 1 1 1 3 4 3 2 2 1 1
4 3 3 2 2 2 1 1 0 1 1 1 1 2 2 2 2 2 2 2 1 1 1 1 1 1 1 1 1 1 1 1 0 0 0 0 1 2 3 3 3 2 1
5 4 4 2 3 3 2 2 1 1 1 1 1 2 2 2 2 2 2 2 1 1 1 1 1 1 1 0 0 0 0 0 0 0 0 1 1 1 1 3 4 4 3
5 5 4 4 4 3 2 2 2 1 1 1 1 1 2 2 2 2 2 2 2 1 1 1 1 1 0 0 0 0 0 0 0 0 0 1 1 1 1 1 3 4 4
4 5 5 5 4 3 3 2 2 2 1 1 1 1 2 2 3 2 2 2 2 2 1 1 1 1 0 0 0 0 1 1 1 0 1 1 1 1 1 1 1 1 3
3 4 5 5 5 4 3 3 2 2 2 2 2 2 2 3 3 3 2 2 2 2 2 2 1 1 1 0 1 1 1 1 1 1 1 1 1 1 1 2 1 1 1
4 4 4 5 5 5 4 3 2 2 2 2 2 2 2 3 3 3 3 2 2 2 2 2 2 1 0 0 1 1 1 2 1 1 1 1 1 1 1 2 2 1 2
5 5 4 5 5 5 4 3 2 2 1 2 2 2 3 3 3 3 3 3 3 2 2 2 2 2 1 1 1 2 2 2 1 1 1 1 1 1 1 1 1 1 2
5 5 5 5 5 5 5 5 5 4 3 3 3 2 3 3 3 3 3 3 3 3 3 3 2 2 2 1 1 1 2 1 2 1 1 1 2 2 2 2 2 1 2
5 4 5 5 5 5 5 5 6 5 3 2 2 3 3 3 3 3 3 3 3 3 3 3 3 2 2 2 1 1 1 1 2 3 3 3 3 2 2 3 2 2 2
3 3 4 4 4 5 5 5 6 6 4 4 4 4 3 2 3 4 3 3 3 3 3 3 3 3 3 3 2 2 2 2 2 3 3 3 4 3 3 2 2 2 1
Wind_Direction
270 303 323 344 93 84 95 102 108 110 114 119 116 111 110 112 111 108 103 100 98 96 93 90 86 83 80 77 74 72 72 71 70 70 74 75 77 76 76 71 69 76 73
306 264 331 318 106 105 108 108 108 111 112 114 116 112 110 111 111 107 103 101 99 97 94 91 87 85 82 81 79 76 73 72 72 70 73 81 77 76 77 70 61 72 75
335 277 191 144 116 119 117 115 110 109 112 118 119 114 112 111 108 106 104 101 98 96 94 91 90 87 84 83 81 78 76 74 73 73 77 87 84 78 80 74 70 73 75
342 293 194 84 115 123 122 120 115 111 109 113 115 114 113 112 110 106 106 102 98 96 96 94 92 91 87 83 79 75 74 74 71 75 88 82 84 81 81 79 74 72 72
22 27 64 68 111 118 117 117 114 112 111 111 110 109 109 112 112 107 105 102 97 93 91 91 90 90 89 85 80 76 74 73 74 86 87 84 84 84 81 77 75 73 70
24 27 68 60 82 98 110 112 111 114 113 109 111 108 100 102 110 106 102 99 95 92 89 86 87 86 84 83 80 77 75 77 97 86 83 82 83 83 82 79 77 77 73
28 39 73 60 65 75 95 98 99 102 102 99 99 99 97 91 96 101 99 96 93 88 87 85 84 85 85 82 79 76 75 66 81 84 81 81 80 82 83 81 78 78 76
39 42 68 61 56 71 89 91 90 90 90 89 85 82 85 86 85 89 94 93 89 84 80 81 83 84 85 84 80 74 69 66 89 87 84 81 73 79 87 85 81 79 76
44 42 39 59 62 63 77 81 83 84 83 81 79 75 71 75 76 78 78 81 86 84 78 76 78 79 82 84 81 78 71 56 81 83 83 77 72 77 85 85 82 79 76
43 39 37 43 44 76 96 77 76 78 77 79 78 75 72 76 75 72 75 73 72 78 78 75 76 75 72 74 75 75 75 83 84 82 78 71 67 74 80 83 80 78 74
29 25 27 41 40 60 93 89 83 78 75 79 80 75 82 101 95 85 72 66 68 69 76 77 74 74 74 76 72 68 75 84 86 73 62 56 61 68 82 88 84 77 74
357 2 8 16 33 75 100 108 101 91 90 88 92 91 89 91 84 81 74 64 64 64 71 76 75 78 78 86 78 71 75 79 79 67 49 41 54 60 74 81 83 81 72
287 336 353 11 25 52 105 109 98 94 93 91 89 85 90 90 89 85 88 81 72 69 73 84 91 83 72 67 70 69 66 60 58 51 41 32 39 57 62 68 69 73 72
235 268 329 1 47 50 75 113 122 122 116 110 99 96 107 106 99 97 87 76 69 56 60 62 75 78 82 77 69 68 64 57 62 52 38 27 23 36 52 61 58 60 63
220 226 249 259 124 103 100 108 127 131 133 135 127 118 120 125 122 114 99 81 71 60 57 59 64 79 81 79 70 71 70 55 51 40 57 37 20 21 35 44 42 45 49
226 221 219 207 187 159 146 141 145 135 136 146 127 119 124 129 127 124 113 104 91 75 49 47 71 62 86 86 89 84 76 40 32 21 20 51 36 19 13 10 2 357 16
231 226 216 204 188 178 173 166 158 147 154 148 133 127 120 121 136 138 130 121 102 102 99 77 77 68 94 105 103 94 82 32 6 46 24 328 33 28 10 359 347 328 336
231 226 216 205 194 186 174 169 169 179 175 158 149 146 140 136 140 144 138 134 127 128 129 123 125 88 61 127 134 139 140 100 26 4 352 324 325 335 13 7 352 339 337
231 222 215 211 201 189 176 171 167 175 178 167 159 168 158 150 154 154 146 138 143 138 137 131 126 123 137 58 1 299 277 236 232 255 303 319 315 316 323 22 8 356 344
231 223 216 211 205 190 173 168 168 171 181 177 174 187 176 166 168 164 147 145 148 145 140 136 116 92 125 46 322 317 297 273 272 286 282 298 321 328 323 326 326 355 345
225 221 219 212 200 189 182 187 192 195 194 194 194 197 189 183 180 174 162 159 162 157 154 150 137 132 79 316 246 228 222 226 241 279 279 289 314 334 341 339 339 329 339
222 219 216 213 206 201 199 196 204 200 199 202 195 197 196 193 190 185 172 169 172 164 156 158 161 174 160 231 261 248 224 211 202 247 247 268 291 308 334 343 342 338 332
224 223 221 215 209 205 196 177 161 177 177 195 199 199 201 194 191 185 181 174 177 178 178 179 190 187 191 206 271 270 251 243 300 209 238 260 300 304 304 313 310 322 330
227 222 221 215 208 202 195 191 184 194 204 211 211 209 201 198 197 189 190 189 185 189 188 187 201 214 199 197 230 291 315 325 258 253 241 261 285 279 287 285 278 288 305
227 218 214 212 207 201 201 203 199 206 211 202 204 208 206 201 200 195 195 196 197 199 198 193 197 206 213 217 217 231 246 267 268 255 262 268 277 271 280 273 264 270 283
229 218 211 208 210 207 204 206 211 210 205 202 206 208 210 208 203 201 200 202 203 204 207 204 206 206 216 224 228 229 231 233 234 240 250 264 273 278 279 262 261 272 277